Regional Weather Roundup
Issued by NWS Newport/Morehead, NC

Current Version | Previous Version | Text Only | Print | Product List | Glossary On
Versions: 1 2 3 4 5 6 7 8 9 10 11 12 13 14 15 16 17 18 19 20 21 22 23 24 25 26 27 28 29 30 31 32 33 34 35 36 37 38 39 40 41 42 43 44 45 46 47 48 49 50
000
ASUS42 KMHX 240112
RWRMHX
WEATHER ROUNDUP FOR EASTERN NORTH CAROLINA
NATIONAL WEATHER SERVICE NEWPORT/MOREHEAD CITY NC
900 PM EDT SAT MAY 23 2015

NOTE: "FAIR" INDICATES FEW OR NO CLOUDS BELOW 12,000 FEET
WITH NO SIGNIFICANT WEATHER AND/OR OBSTRUCTIONS TO VISIBILITY

NCZ015>017-031-032-045>047-102-103-240200-
NORTH COAST

CITY           SKY/WX    TMP DP  RH WIND       PRES   REMARKS
EDENTON        CLEAR     61  50  67 E5        30.40S
ELIZABETH CITY CLEAR     59  48  67 E5        30.41S
KITTY HAWK     PTCLDY    60  55  82 E6        30.40S
MANTEO         PTCLDY    60  54  82 E5        30.42S

$$

NCZ045>047-081-094-103-104-240200-
CENTRAL COAST

CITY           SKY/WX    TMP DP  RH WIND       PRES   REMARKS
FRISCO         CLEAR     60  55  83 NE6       30.40F
SWANQUARTER      N/A     63 N/A N/A E6        30.36S

$$

NCZ095-097-098-100-101-240200-
SOUTHERN COAST

CITY           SKY/WX    TMP DP  RH WIND       PRES   REMARKS
BEAUFORT       CLEAR     68  52  56 E7        30.39S
CEDAR ISLAND     N/A     68 N/A N/A E14       30.44S
JACKSONVILLE   CLEAR     70  57  63 SE9       30.38S
PINEY ISLAND   CLEAR    N/A N/A N/A E10       30.40R
WILMINGTON     CLEAR     70  57  63 E5        30.37S


$$

NCZ011>013-027>030-043-044-078>080-089-090>093-098-240200-
COASTAL PLAIN

CITY           SKY/WX    TMP DP  RH WIND       PRES   REMARKS
AHOSKIE        CLEAR     63  51  64 SE3       30.39S
CLINTON        CLEAR     67  53  60 CALM      30.37S
ELIZABETHTOWN  CLEAR     70  48  46 CALM      30.37R
GOLDSBORO      CLEAR     70  57  62 SE8       30.35
GREENVILLE     CLEAR     70  54  56 SE8       30.39S
HAVELOCK       CLEAR     64  52  64 SE5       30.40S
KENANSVILLE    CLEAR     64  53  69 CALM      30.39R
KINSTON        CLEAR     70  55  60 SE6       30.39S
NEW BERN       CLEAR     68  52  56 E6        30.41R
RICHLANDS      CLEAR     68  54  60 S5        30.39S
ROCKY MOUNT    CLEAR     65  54  67 CALM      30.37S
WASHINGTON     CLEAR     67  52  57 SE6       30.39F
WHITEVILLE     CLEAR     67  51  58 CALM      30.37R

$$

AMZ130-135-150-152-154-156-158-170-250-252-270-ANZ085-086-088-633-658-670-240200-
MARINE OBSERVATIONS

STATION/POSITION TIME  TEMP    WIND        PRES    WAVE   SWELL
                       AIR SEA DIR/SP/G            HT/PER HT/PER
                 (UTC) (F)     (DEG/KT/KT) (MB)    (FT/S) (FT/S)
CHESAPEAKE LIGHT 0000   60     130/ 10/ 10 1030.4
64 E VA BEACH    0050   61 61   80/  6/  6 1029.8    2/ 5   2/ 5
DUCK             0000   61 65   90/  8/  8 1028.8
2 E DUCK         0011      63                N/A     2/ 8
OREGON INLET     0000   62 71   40/  7/ 10 1029.7
13E OREGON INLT  0100      62                N/A     3/ 5
HATTERAS CG      0000   65 74   60/  7/  9 1029.0
DIAMOND BUOY     0050   69 77   50/ 12/ 14 1029.2    3/ 6   2/ 6
CAPE LOOKOUT     0100   70      70/ 11/ 13 1029.0
BEAUFORT LAB     0000   70 76   90/  6/  9 1028.2
27 SE WRIGHTSVLE 0000   70 77  130/ 12/ 14   N/A
5 SE WRIGHTSVLE  0008   74 75  140/ 12/ 16 1028.2
225 S CAPE HAT   0050   72 74   80/ 21/ 25 1026.9    6/ 5   2/ 9
41 SE CHARLESTON 0050   75 76   80/ 17/ 19 1026.4    5/ 6   2/16

$$



USA.gov is the U.S. government's official web portal to all federal, state and local government web resources and services.